Home   Weather   Gary   Past weeks

Flag for USA Past Weather in Gary, Indiana, USA — Yesterday and Last 2 Weeks

Now
62 °F

Cloudy.


Feels Like: 62 °F
Forecast: 57 / 65 °F
Wind: 3 mph from North

Location: Lansing Municipal Airport

Current Time: Oct 1, 2016 at 2:00:56 PM

Latest Report: Oct 1, 2016 at 1:15 PM


Visibility: 10 mi

Pressure: 29.99 "Hg

Humidity: 100%

Dew Point: 62 °F

Location of GaryLocation

Past Weather in Gary — Graph

°F

Gary Temperature Yesterday

Maximum temperature yesterday: 64 °F (at 2:55 PM)
Minimum temperature yesterday: 59 °F (at 1:35 AM)
Average temperature yesterday: 61 °F

High & Low Weather Summary for the Past Weeks

 TemperatureHumidityPressure
High87 °F (Sep 19, 3:55 PM)100% (Sep 17, 1:55 AM)30.26 "Hg (Sep 17, 1:55 AM)
Low47 °F (Sep 27, 1:35 AM)29% (Sep 27, 1:55 PM)29.75 "Hg (Sep 27, 3:35 PM)
Average67 °F80%30.03 "Hg
* Reported Sep 16 12:15 PM — Oct 1 12:55 PM, Gary, Weather by CustomWeather, © 2016

Note: Actual official high and low records may vary slightly from our data, if they occured in-between our weather recording intervals... More about our weather records

Advertising

Gary Weather History for the Previous 24 Hours

Scroll right to see more
 ConditionsComfort  
Time TempWeatherWind HumidityBarometerVisibility
12:55 PM
Sat, Oct 1
61 °FLight rain. Cloudy.3 mph100%29.99 "Hg10 mi
12:15 PM61 °FCloudy.6 mph100%30.00 "Hg10 mi
11:55 AM61 °FMostly cloudy.7 mph100%30.00 "Hg10 mi
11:15 AM60 °FDrizzle. Mostly cloudy.5 mph100%30.01 "Hg7 mi
10:55 AM60 °FLight rain. Cloudy.7 mph100%30.01 "Hg7 mi
10:15 AM58 °FRain. Cloudy.6 mph100%30.01 "Hg7 mi
9:55 AM58 °FLight rain. Cloudy.6 mph100%30.01 "Hg7 mi
9:15 AM58 °FLight rain. Cloudy.3 mph100%30.01 "Hg10 mi
8:55 AM58 °FRain. Cloudy.7 mph100%30.01 "Hg7 mi
8:15 AM58 °FRain. Mostly cloudy.No wind100%30.01 "Hg7 mi
7:55 AM58 °FHeavy rain. Cloudy.3 mph100%30.01 "Hg2 mi
7:35 AM58 °FHeavy rain. More clouds than sun.No wind100%30.01 "Hg4 mi
7:15 AM58 °FThunderstorms. Cloudy.3 mph100%30.01 "Hg5 mi
6:55 AM58 °FThundershowers. Cloudy.3 mph100%30.01 "Hg4 mi
6:35 AM58 °FThundershowers. Cloudy.3 mph100%30.01 "Hg4 mi
6:15 AM58 °FThundershowers. Cloudy.3 mph100%30.01 "Hg7 mi
5:55 AM57 °FThundershowers. Cloudy.3 mph100%30.01 "Hg5 mi
5:15 AM57 °FThundershowers. Mostly cloudy.No wind100%30.01 "Hg7 mi
4:55 AM56 °FFog.5 mph100%30.01 "Hg4 mi
4:35 AM56 °FFog.No wind100%30.02 "Hg4 mi
4:15 AM56 °FFog.No wind100%30.02 "Hg4 mi
3:55 AM56 °FPartly cloudy.No wind100%30.02 "Hg7 mi
3:15 AM56 °FPartly cloudy.3 mph100%30.03 "Hg10 mi
2:55 AM57 °FPartly cloudy.3 mph100%30.03 "Hg10 mi
2:35 AM58 °FPassing clouds.No wind100%30.04 "Hg10 mi
2:15 AM57 °FPassing clouds.5 mph100%30.04 "Hg10 mi
1:55 AM57 °FClear.3 mph100%30.04 "Hg7 mi
1:35 AM58 °FPassing clouds.3 mph100%30.04 "Hg10 mi
1:15 AM58 °FPassing clouds.3 mph100%30.04 "Hg10 mi
12:55 AM59 °FMostly cloudy.5 mph99%30.04 "Hg10 mi
12:15 AM60 °FOvercast.5 mph97%30.04 "Hg10 mi
11:55 PM
Fri, Sep 30
60 °FOvercast.6 mph98%30.05 "Hg10 mi
11:35 PM60 °FOvercast.7 mph98%30.05 "Hg10 mi
11:15 PM61 °FOvercast.6 mph98%30.04 "Hg10 mi
10:55 PM60 °FMostly cloudy.5 mph99%30.04 "Hg10 mi
10:35 PM60 °FOvercast.6 mph99%30.04 "Hg10 mi
10:15 PM60 °FMostly cloudy.6 mph98%30.04 "Hg10 mi
9:55 PM61 °FMostly cloudy.8 mph97%30.04 "Hg10 mi
9:15 PM60 °FRain. Overcast.6 mph99%30.04 "Hg10 mi
8:55 PM60 °FLight rain. Overcast.7 mph99%30.05 "Hg10 mi
8:15 PM60 °FLight rain. Overcast.9 mph100%30.06 "Hg10 mi
7:55 PM60 °FRain. Overcast.8 mph100%30.05 "Hg10 mi
7:15 PM60 °FRain. Mostly cloudy.8 mph100%30.06 "Hg7 mi
6:55 PM61 °FLight rain. Mostly cloudy.10 mph100%30.06 "Hg10 mi
6:15 PM62 °FRain. Low clouds.13 mph98%30.06 "Hg7 mi
5:55 PM62 °FThundershowers. Mostly cloudy.14 mph96%30.06 "Hg10 mi
5:35 PM63 °FLight rain. Overcast.13 mph94%30.05 "Hg10 mi
5:15 PM63 °FOvercast.9 mph94%30.06 "Hg10 mi
4:55 PM64 °FOvercast.3 mph94%30.05 "Hg10 mi
4:15 PM64 °FMostly cloudy.16 mph90%30.05 "Hg10 mi
3:55 PM64 °FMostly cloudy.3 mph91%30.05 "Hg10 mi
3:15 PM64 °FOvercast.5 mph92%30.06 "Hg10 mi
2:55 PM64 °FOvercast.8 mph90%30.06 "Hg10 mi
2:15 PM64 °FOvercast.12 mph91%30.07 "Hg10 mi
Weather by CustomWeather, © 2016

See weather overviewHow to use our weather pages